Erie, CO

7:21 PM MDT on April 30, 2017 (GMT -0600)
Erie Municipal Airport

Weather History for KEIK - August, 2013

Change the Weather History Date:

Sunday, August 11, 2013

  Actual Average (KBJC) Record (KBJC)
Temperature  
Mean Temperature 70 °F -  
Max Temperature 83 °F 83 °F 95 °F (2002)
Min Temperature 56 °F 59 °F 51 °F (2008)
Cooling Degree Days 4    
Growing Degree Days 20 (Base 50)    
Moisture  
Dew Point 47 °F    
Average Humidity 46    
Maximum Humidity 82    
Minimum Humidity 22    
Precipitation  
Precipitation 0.00 in - - ()
Sea Level Pressure  
Sea Level Pressure 30.21 in    
Wind  
Wind Speed 4 mph (NNE)    
Max Wind Speed 16 mph    
Max Gust Speed 23 mph    
Visibility 10 miles    
Events Thunderstorm    
Averages and records for this station are not official NWS values.
T = Trace of Precipitation, MM = Missing Value Source: NWS Daily Summary

Daily Weather History Graph

Daily Weather History Graph

Search for Another Location

Airport or City:

Trip Planner

Search our weather history database for the weather conditions in past years. The results will help you decide how hot, cold, wet, or windy it might be!

Date:

Astronomy

Aug. 11, 2013 Rise Set
Actual Time 6:08 AM MDT 8:01 PM MDT
Civil Twilight 5:38 AM MDT 8:30 PM MDT
Nautical Twilight 5:03 AM MDT 9:06 PM MDT
Astronomical Twilight 4:24 AM MDT 9:44 PM MDT
Moon 10:58 AM MDT (8/11) 10:18 PM MDT (8/11)
Length of Visible Light 14h 52m
Length of Day
13h 53m
Waxing Crescent, 22% of the Moon is Illuminated
Aug 11
Waxing Crescent
Aug 14
First Quarter
Aug 20
Full
Aug 28
Last Quarter
Sep 5
New

Hourly Weather History & Observations

Time (MDT) Temp. Dew Point Humidity Pressure Visibility Wind Dir Wind Speed Gust Speed Precip Events Conditions
12:14 AM 64.0 °F 46.9 °F 54% 30.18 in 10.0 mi SSW 4.6 mph - N/A   Clear
12:34 AM 62.6 °F 47.3 °F 57% 30.18 in 10.0 mi Calm Calm - N/A   Clear
12:54 AM 63.9 °F 47.1 °F 54% 30.18 in 10.0 mi ESE 3.5 mph - N/A   Clear
1:14 AM 63.1 °F 47.5 °F 57% 30.19 in 10.0 mi SE 3.5 mph - N/A   Clear
1:34 AM 64.6 °F 47.7 °F 54% 30.20 in 10.0 mi Calm Calm - N/A   Clear
1:54 AM 62.6 °F 48.7 °F 60% 30.20 in 10.0 mi SSW 3.5 mph - N/A   Clear
2:14 AM 63.0 °F 48.7 °F 60% 30.19 in 10.0 mi Calm Calm - N/A   Clear
2:34 AM 61.9 °F 49.1 °F 63% 30.19 in 10.0 mi SW 5.8 mph - N/A   Clear
2:54 AM 60.3 °F 49.5 °F 68% 30.19 in 10.0 mi Calm Calm - N/A   Clear
3:14 AM 60.6 °F 48.6 °F 64% 30.19 in 10.0 mi WNW 4.6 mph - N/A   Clear
3:34 AM 61.2 °F 50.0 °F 67% 30.20 in 10.0 mi Calm Calm - N/A   Clear
3:54 AM 61.3 °F 50.5 °F 68% 30.20 in 10.0 mi NNE 5.8 mph - N/A   Clear
4:14 AM 61.3 °F 51.1 °F 69% 30.20 in 10.0 mi North 5.8 mph - N/A   Clear
4:34 AM 61.7 °F 51.8 °F 70% 30.21 in 10.0 mi North 4.6 mph - N/A   Clear
4:54 AM 60.8 °F 51.8 °F 72% 30.21 in 10.0 mi NNW 5.8 mph - N/A   Scattered Clouds
5:14 AM 59.7 °F 51.8 °F 75% 30.21 in 10.0 mi North 3.5 mph - N/A   Scattered Clouds
5:34 AM 59.7 °F 51.4 °F 74% 30.22 in 10.0 mi NE 4.6 mph - N/A   Clear
5:54 AM 59.5 °F 51.3 °F 74% 30.22 in 10.0 mi Calm Calm - N/A   Clear
6:14 AM 58.5 °F 50.9 °F 76% 30.22 in 10.0 mi Calm Calm - N/A   Clear
6:34 AM 56.8 °F 51.1 °F 81% 30.22 in 10.0 mi Calm Calm - N/A   Clear
6:54 AM 57.2 °F 51.6 °F 82% 30.23 in 10.0 mi South 3.5 mph - N/A   Clear
7:14 AM 59.0 °F 51.8 °F 77% 30.23 in 10.0 mi Calm Calm - N/A   Clear
7:34 AM 60.8 °F 52.7 °F 75% 30.23 in 10.0 mi Calm Calm - N/A   Clear
7:54 AM 63.1 °F 52.9 °F 69% 30.24 in 10.0 mi Calm Calm - N/A   Clear
8:14 AM 62.8 °F 53.4 °F 71% 30.24 in 10.0 mi Calm Calm - N/A   Mostly Cloudy
8:34 AM 64.9 °F 53.6 °F 67% 30.24 in 10.0 mi Calm Calm - N/A   Mostly Cloudy
8:54 AM 67.5 °F 52.3 °F 58% 30.24 in 10.0 mi Calm Calm - N/A   Scattered Clouds
9:14 AM 71.8 °F 49.1 °F 45% 30.24 in 10.0 mi Calm Calm - N/A   Clear
9:34 AM 73.4 °F 45.0 °F 36% 30.24 in 10.0 mi Calm Calm - N/A   Clear
9:54 AM 74.3 °F 43.7 °F 33% 30.24 in 10.0 mi Calm Calm - N/A   Mostly Cloudy
10:14 AM 77.0 °F 42.8 °F 29% 30.24 in 10.0 mi East 4.6 mph - N/A   Mostly Cloudy
10:34 AM 79.0 °F 42.8 °F 28% 30.24 in 10.0 mi Calm Calm - N/A   Scattered Clouds
10:54 AM 80.1 °F 41.7 °F 26% 30.24 in 10.0 mi Calm Calm - N/A   Scattered Clouds
11:14 AM 80.6 °F 41.5 °F 25% 30.24 in 10.0 mi ENE 5.8 mph - N/A   Scattered Clouds
11:34 AM 81.0 °F 41.4 °F 24% 30.23 in 10.0 mi North 5.8 mph - N/A   Clear
11:54 AM 80.2 °F 41.5 °F 25% 30.23 in 10.0 mi ENE 9.2 mph - N/A   Clear
12:14 PM 82.8 °F 42.6 °F 24% 30.23 in 10.0 mi ENE 4.6 mph - N/A   Clear
12:34 PM 82.0 °F 42.6 °F 25% 30.23 in 10.0 mi NE 8.1 mph - N/A   Scattered Clouds
12:54 PM 83.1 °F 40.8 °F 22% 30.22 in 10.0 mi NE 9.2 mph - N/A   Scattered Clouds
1:14 PM 83.3 °F 41.0 °F 22% 30.22 in 10.0 mi ENE 6.9 mph 21.9 mph N/A   Mostly Cloudy
1:34 PM 79.3 °F 39.6 °F 24% 30.22 in 10.0 mi NE 10.4 mph 17.3 mph N/A   Overcast
1:54 PM 78.3 °F 39.6 °F 25% 30.22 in 10.0 mi NE 8.1 mph - N/A   Mostly Cloudy
2:14 PM 83.3 °F 41.0 °F 22% 30.21 in 10.0 mi NNE 9.2 mph 16.1 mph N/A   Scattered Clouds
2:34 PM 81.7 °F 42.1 °F 25% 30.21 in 10.0 mi North 13.8 mph 18.4 mph N/A   Clear
2:54 PM 81.7 °F 45.0 °F 27% 30.21 in 10.0 mi North 9.2 mph 19.6 mph N/A   Scattered Clouds
3:14 PM 80.2 °F 44.2 °F 28% 30.20 in 10.0 mi North 11.5 mph 16.1 mph N/A   Scattered Clouds
3:34 PM 82.9 °F 44.1 °F 25% 30.20 in 10.0 mi North 10.4 mph - N/A   Scattered Clouds
3:54 PM 81.7 °F 43.0 °F 25% 30.19 in 10.0 mi NNW 16.1 mph 23.0 mph N/A   Scattered Clouds
4:14 PM 82.0 °F 43.0 °F 25% 30.19 in 10.0 mi NNW 10.4 mph - N/A   Clear
4:34 PM 80.2 °F 41.9 °F 26% 30.19 in 10.0 mi NNW 9.2 mph - N/A   Clear
4:54 PM 82.2 °F 42.4 °F 24% 30.18 in 10.0 mi North 8.1 mph - N/A   Clear
5:14 PM 81.0 °F 42.6 °F 26% 30.17 in 10.0 mi NW 5.8 mph - N/A   Clear
5:34 PM 82.0 °F 42.3 °F 24% 30.17 in 10.0 mi West 4.6 mph - N/A   Clear
5:54 PM 80.2 °F 41.9 °F 26% 30.17 in 10.0 mi Calm Calm - N/A   Clear
6:14 PM 79.9 °F 42.6 °F 27% 30.17 in 10.0 mi North 6.9 mph - N/A   Clear
6:34 PM 78.1 °F 44.6 °F 30% 30.16 in 10.0 mi Calm Calm - N/A   Clear
6:54 PM 79.7 °F 43.2 °F 27% 30.17 in 10.0 mi NNE 3.5 mph - N/A Thunderstorm Clear
7:14 PM 79.0 °F 44.8 °F 30% 30.17 in 10.0 mi NE 8.1 mph - N/A   Clear
7:34 PM 76.5 °F 45.1 °F 33% 30.17 in 10.0 mi NNE 5.8 mph - N/A   Clear
7:54 PM 73.4 °F 47.7 °F 40% 30.17 in 10.0 mi North 4.6 mph - N/A   Scattered Clouds
8:14 PM 71.6 °F 48.6 °F 44% 30.18 in 10.0 mi Calm Calm - N/A   Scattered Clouds
8:34 PM 70.0 °F 48.6 °F 46% 30.18 in 10.0 mi Calm Calm - N/A Thunderstorm Scattered Clouds
8:54 PM 69.8 °F 49.3 °F 48% 30.20 in 10.0 mi Calm Calm - N/A   Clear
9:14 PM 67.3 °F 50.7 °F 55% 30.20 in 10.0 mi Calm Calm - N/A   Clear
9:34 PM 65.7 °F 49.3 °F 55% 30.21 in 10.0 mi Calm Calm - N/A Thunderstorm Clear
9:54 PM 66.2 °F 49.8 °F 55% 30.23 in 10.0 mi Calm Calm - N/A   Scattered Clouds